This demonstration page uses our WeatherBlox Daily Observations layout. Learn more.

Left ArrowRight Arrow

41.12389, -100.76542

Hourly Observations for May 9, 2017

Temp ( °F °C ) Dew Point ( °F °C ) Humidity (%) Winds ( mph kmh ) Pressure ( in mb ) Visibility ( mi km ) Precip ( " mm )
12:53 am 00:53 Partly Cloudy 59 15 46 7.8 62 62 ENE 3 6 29.98 1015 10 16 0.00 0.00
1:53 am 01:53 Cloudy 59 15 47 8.3 64 64 W 16 26 30.01 1016 10 16 0.00 0.00
2:53 am 02:53 Cloudy with Light Rain 58 14.4 47 8.3 67 67 Calm 30.01 1016 10 16 0.00 0.03
3:53 am 03:53 Cloudy with Light Rain 56 13.3 48 8.9 75 75 WNW 6 9 30.02 1017 10 16 0.03 0.76
4:53 am 04:53 Mostly Clear 53 11.7 49 9.4 86 86 NW 6 9 29.99 1016 10 16 0.02 0.51
5:53 am 05:53 Partly Cloudy 53 11.7 48 8.9 83 83 NE 13 20 29.94 1014 10 16 0.00 0.00
6:53 am 06:53 Sunny 51 10.6 46 7.8 83 83 E 6 9 29.96 1015 10 16 0.00 0.00
7:53 am 07:53 Sunny 56 13.3 47 8.3 72 72 Calm 29.98 1015 10 16 0.00 0.00
8:53 am 08:53 Sunny 58 14.4 48 8.9 70 70 ENE 9 15 30.01 1016 10 16 0.00 0.00
9:53 am 09:53 Sunny 59 15 47 8.3 64 64 E 14 22 30.00 1016 10 16 0.00 0.00
10:53 am 10:53 Cloudy 62 16.7 46 7.8 56 56 E 7 11 30.02 1017 10 16 0.00 0.00
11:53 am 11:53 Cloudy 66 18.9 47 8.3 50 50 ENE 10 17 29.99 1016 10 16 0.00 0.00
12:53 pm 12:53 Cloudy 68 20 47 8.3 47 47 E 6 9 29.98 1015 10 16 0.00 0.00
1:53 pm 13:53 Cloudy 69 20.6 48 8.9 47 47 SSE 8 13 29.95 1014 10 16 0.00 0.00
2:53 pm 14:53 Sunny 72 22.2 49 9.4 44 44 ESE 13 20 29.91 1013 10 16 0.00 0.00
3:53 pm 15:53 Sunny 73 22.8 50 10 44 44 ENE 7 11 29.90 1013 10 16 0.00 0.00
4:53 pm 16:53 Sunny 72 22.2 51 10.6 48 48 ESE 12 19 29.88 1012 10 16 0.00 0.00
5:53 pm 17:53 Cloudy 75 23.9 52 11.1 45 45 E 12 19 29.85 1011 10 16 0.00 0.00
6:53 pm 18:53 Mostly Cloudy 72 22.2 54 12.2 53 53 ESE 10 17 29.85 1011 10 16 0.00 0.00
7:53 pm 19:53 Mostly Sunny 70 21.1 54 12.2 57 57 ESE 9 15 29.84 1010 10 16 0.00 0.00
8:53 pm 20:53 Clear 66 18.9 53 11.7 63 63 E 8 13 29.84 1011 10 16 0.00 0.00
9:53 pm 21:53 Mostly Cloudy 63 17.2 53 11.7 70 70 ESE 8 13 29.85 1011 10 16 0.00 0.00
10:53 pm 22:53 Mostly Clear 62 16.7 49 9.4 62 62 E 8 13 29.86 1011 10 16 0.00 0.00
11:53 pm 23:53 Partly Cloudy 60 15.6 47 8.3 62 62 E 12 19 29.84 1011 10 16 0.00 0.00

Powered by AerisWeather